Find Starlink 2408

NORAD ID: 47823 Int'l Des: 2021-018 Owner: SPXS Country: US Constellation: starlink operational
LEOCIRCULARSTARLINK_TYPE

Live Position

Loading 3D Globe...

About Starlink 2408

Description loading...

Upcoming Passes

Passes for default location (London). Set your location on the main map for personalized predictions.

Altitude History

Loading altitude history...

Two-Line Element Set

1 47823U 21018AN 26126.87929128 .00004554 00000-0 17004-3 0 9992
2 47823 53.1576 347.3780 0001325 106.3582 253.7564 15.29357688285417
Epoch: May 6, 2026 • Age: 17 hours

Current Status

Altitude 495.9 km
Velocity 7.62 km/s
Sub-Earth Point -50.57°S, 155.28°E
Launch Date Mar 11, 2021
Age 5.1 years
Type internet

Technical Details

Classification Payload
Mass 260.00 kg
Dry Mass 248.00 kg
Total Mass 260.00 kg
Length 0.20 m
Diameter 2.80 m
Span 9.00 m
Shape Box + pan
Manufacturer SPXS
Bus Type Starlink
Phase Status In Orbit
Owner/State SPXS/US

Most Searched